| time (UTC) | temp F | wind direction | speed MPH | gust MPH | rain 1hr in | rain 24hr in | rain mn in | humidity % | barometer mb |
| 20260504141316 | 65 | 282 | 6.0 | 14.0 | 0.00 | 0.00 | 0.00 | 51 | 1007.4 |
| 20260504140812 | 64 | 268 | 6.0 | 13.0 | 0.00 | 0.00 | 0.00 | 52 | 1007.3 |
| 20260504140308 | 64 | 251 | 6.0 | 10.0 | 0.00 | 0.00 | 0.00 | 53 | 1007.1 |
| 20260504130737 | 60 | 232 | 14.0 | 16.0 | 0.00 | 0.00 | 0.00 | 59 | 1006.8 |
| 20260504130233 | 59 | 238 | 7.0 | 17.0 | 0.00 | 0.00 | 0.00 | 59 | 1006.7 |
| 20260504120156 | 59 | 236 | 13.0 | 14.0 | 0.00 | 0.00 | 0.00 | 60 | 1006.0 |
| 20260504110624 | 59 | 221 | 9.0 | 23.0 | 0.00 | 0.00 | 0.00 | 60 | 1006.1 |
| 20260504110120 | 59 | 237 | 20.0 | 24.0 | 0.00 | 0.00 | 0.00 | 60 | 1006.1 |
| 20260504100545 | 59 | 235 | 12.0 | 20.0 | 0.00 | 0.00 | 0.00 | 59 | 1006.6 |
| 20260504081939 | 61 | 223 | 24.0 | 30.0 | 0.00 | 0.00 | 0.00 | 52 | 1007.2 |
| 20260504081436 | 61 | 229 | 20.0 | 28.0 | 0.00 | 0.00 | 0.00 | 52 | 1007.2 |
| 20260504080932 | 61 | 222 | 13.0 | 23.0 | 0.00 | 0.00 | 0.00 | 51 | 1007.3 |
| 20260504080429 | 61 | 221 | 18.0 | 26.0 | 0.00 | 0.00 | 0.00 | 51 | 1007.3 |
| 20260504070357 | 60 | 215 | 7.0 | 16.0 | 0.00 | 0.00 | 0.00 | 48 | 1008.6 |
| 20260504050738 | 60 | 206 | 4.0 | 10.0 | 0.00 | 0.00 | 0.00 | 43 | 1009.3 |
| 20260504050236 | 59 | 198 | 5.0 | 11.0 | 0.00 | 0.00 | 0.00 | 44 | 1009.3 |
| 20260504045733 | 59 | 194 | 5.0 | 9.0 | 0.00 | 0.00 | 0.00 | 44 | 1009.3 |
| 20260504045227 | 60 | 210 | 5.0 | 11.0 | 0.00 | 0.00 | 0.00 | 43 | 1009.7 |
| 20260504044726 | 60 | 191 | 5.0 | 11.0 | 0.00 | 0.00 | 0.00 | 43 | 1009.6 |
| 20260504044223 | 60 | 197 | 7.0 | 13.0 | 0.00 | 0.00 | 0.00 | 43 | 1009.6 |
| 20260504043720 | 60 | 204 | 4.0 | 11.0 | 0.00 | 0.00 | 0.00 | 43 | 1009.6 |
| 20260504043216 | 61 | 195 | 8.0 | 10.0 | 0.00 | 0.00 | 0.00 | 42 | 1009.5 |
| 20260504042714 | 61 | 202 | 7.0 | 10.0 | 0.00 | 0.00 | 0.00 | 41 | 1009.6 |
| 20260504042210 | 62 | 207 | 9.0 | 10.0 | 0.00 | 0.00 | 0.00 | 41 | 1009.8 |
| 20260504041707 | 62 | 187 | 6.0 | 12.0 | 0.00 | 0.00 | 0.00 | 41 | 1009.7 |
| 20260504041202 | 62 | 197 | 6.0 | 9.0 | 0.00 | 0.00 | 0.00 | 40 | 1009.8 |
| 20260504040659 | 61 | 181 | 7.0 | 10.0 | 0.00 | 0.00 | 0.00 | 40 | 1009.6 |
| 20260504040156 | 61 | 193 | 9.0 | 11.0 | 0.00 | 0.00 | 0.00 | 40 | 1009.8 |
| 20260504035653 | 61 | 194 | 7.0 | 8.0 | 0.00 | 0.00 | 0.00 | 41 | 1009.8 |
| 20260504035150 | 61 | 207 | 5.0 | 6.0 | 0.00 | 0.00 | 0.00 | 41 | 1009.8 |
| 20260504034647 | 61 | 182 | 2.0 | 7.0 | 0.00 | 0.00 | 0.00 | 40 | 1009.7 |
| 20260504034144 | 62 | 189 | 5.0 | 7.0 | 0.00 | 0.00 | 0.00 | 40 | 1009.7 |
| 20260504033642 | 62 | 199 | 8.0 | 9.0 | 0.00 | 0.00 | 0.00 | 39 | 1010.1 |
| 20260504033139 | 63 | 176 | 5.0 | 10.0 | 0.00 | 0.00 | 0.00 | 38 | 1009.7 |
| 20260504032636 | 63 | 192 | 5.0 | 10.0 | 0.00 | 0.00 | 0.00 | 37 | 1009.8 |
| 20260504032133 | 63 | 200 | 6.0 | 9.0 | 0.00 | 0.00 | 0.00 | 38 | 1009.8 |
| 20260504031630 | 63 | 196 | 5.0 | 8.0 | 0.00 | 0.00 | 0.00 | 38 | 1009.8 |
| 20260504031126 | 64 | 193 | 3.0 | 9.0 | 0.00 | 0.00 | 0.00 | 38 | 1009.6 |
| 20260504030623 | 64 | 206 | 4.0 | 8.0 | 0.00 | 0.00 | 0.00 | 37 | 1009.5 |
| 20260504030120 | 64 | 195 | 4.0 | 8.0 | 0.00 | 0.00 | 0.00 | 37 | 1009.6 |
| 20260504025617 | 65 | 208 | 5.0 | 10.0 | 0.00 | 0.00 | 0.00 | 37 | 1009.8 |
| 20260504025114 | 66 | 207 | 4.0 | 8.0 | 0.00 | 0.00 | 0.00 | 36 | 1009.7 |
| 20260504024611 | 66 | 204 | 4.0 | 7.0 | 0.00 | 0.00 | 0.00 | 35 | 1009.6 |
| 20260504024107 | 67 | 206 | 5.0 | 8.0 | 0.00 | 0.00 | 0.00 | 35 | 1009.5 |
| 20260504023604 | 67 | 205 | 4.0 | 10.0 | 0.00 | 0.00 | 0.00 | 34 | 1009.6 |
| 20260504023100 | 68 | 209 | 7.0 | 9.0 | 0.00 | 0.00 | 0.00 | 34 | 1009.6 |
| 20260504022556 | 68 | 211 | 8.0 | 10.0 | 0.00 | 0.00 | 0.00 | 34 | 1009.6 |
| 20260504022052 | 68 | 206 | 3.0 | 10.0 | 0.00 | 0.00 | 0.00 | 33 | 1009.5 |
| 20260504021550 | 69 | 220 | 5.0 | 10.0 | 0.00 | 0.00 | 0.00 | 33 | 1009.3 |
| 20260504021047 | 69 | 211 | 7.0 | 11.0 | 0.00 | 0.00 | 0.00 | 32 | 1009.3 |
| 20260504020544 | 70 | 201 | 5.0 | 11.0 | 0.00 | 0.00 | 0.00 | 32 | 1009.3 |
| 20260504020040 | 70 | 195 | 7.0 | 11.0 | 0.00 | 0.00 | 0.00 | 32 | 1009.2 |
| 20260504015537 | 71 | 225 | 7.0 | 11.0 | 0.00 | 0.00 | 0.00 | 31 | 1009.3 |
| 20260504015032 | 71 | 218 | 9.0 | 13.0 | 0.00 | 0.00 | 0.00 | 31 | 1009.3 |
| 20260504014529 | 72 | 225 | 12.0 | 15.0 | 0.00 | 0.00 | 0.00 | 30 | 1009.3 |
| 20260504014026 | 72 | 230 | 9.0 | 13.0 | 0.00 | 0.00 | 0.00 | 30 | 1009.0 |
| 20260504013524 | 73 | 226 | 9.0 | 19.0 | 0.00 | 0.00 | 0.00 | 30 | 1009.0 |
| 20260504013021 | 73 | 229 | 8.0 | 21.0 | 0.00 | 0.00 | 0.00 | 29 | 1009.0 |
| 20260504012518 | 73 | 226 | 9.0 | 21.0 | 0.00 | 0.00 | 0.00 | 29 | 1009.2 |
| 20260504012016 | 74 | 213 | 9.0 | 20.0 | 0.00 | 0.00 | 0.00 | 29 | 1009.1 |
| 20260504011512 | 74 | 222 | 11.0 | 23.0 | 0.00 | 0.00 | 0.00 | 29 | 1009.2 |
| 20260504011008 | 74 | 224 | 14.0 | 24.0 | 0.00 | 0.00 | 0.00 | 28 | 1009.3 |
| 20260504010504 | 74 | 199 | 10.0 | 24.0 | 0.00 | 0.00 | 0.00 | 27 | 1009.2 |
| 20260504010000 | 75 | 214 | 13.0 | 20.0 | 0.00 | 0.00 | 0.00 | 27 | 1009.2 |
| 20260504005457 | 75 | 215 | 13.0 | 23.0 | 0.00 | 0.00 | 0.00 | 26 | 1009.0 |
| 20260504004955 | 75 | 233 | 13.0 | 29.0 | 0.00 | 0.00 | 0.00 | 26 | 1009.2 |
| 20260504004452 | 75 | 225 | 15.0 | 24.0 | 0.00 | 0.00 | 0.00 | 27 | 1009.2 |
| 20260504003949 | 75 | 222 | 17.0 | 28.0 | 0.00 | 0.00 | 0.00 | 27 | 1009.5 |
| 20260504003445 | 76 | 230 | 10.0 | 29.0 | 0.00 | 0.00 | 0.00 | 26 | 1009.3 |
| 20260504002942 | 75 | 222 | 28.0 | 35.0 | 0.00 | 0.00 | 0.00 | 27 | 1009.3 |
| 20260504002439 | 76 | 205 | 20.0 | 22.0 | 0.00 | 0.00 | 0.00 | 27 | 1009.6 |
| 20260504001937 | 76 | 217 | 13.0 | 29.0 | 0.00 | 0.00 | 0.00 | 26 | 1009.3 |
| 20260504001434 | 77 | 222 | 15.0 | 25.0 | 0.00 | 0.00 | 0.00 | 26 | 1009.5 |
| 20260504000930 | 77 | 220 | 12.0 | 29.0 | 0.00 | 0.00 | 0.00 | 26 | 1009.5 |
| 20260504000427 | 77 | 219 | 15.0 | 29.0 | 0.00 | 0.00 | 0.00 | 25 | 1009.6 |
| 20260503235925 | 77 | 228 | 27.0 | 29.0 | 0.00 | 0.00 | 0.00 | 25 | 1009.5 |
| 20260503235422 | 77 | 227 | 13.0 | 28.0 | 0.00 | 0.00 | 0.00 | 25 | 1009.6 |
| 20260503234920 | 77 | 226 | 24.0 | 24.0 | 0.00 | 0.00 | 0.00 | 26 | 1009.6 |
| 20260503234417 | 78 | 221 | 12.0 | 28.0 | 0.00 | 0.00 | 0.00 | 25 | 1009.6 |
| 20260503233915 | 78 | 232 | 15.0 | 28.0 | 0.00 | 0.00 | 0.00 | 24 | 1009.7 |
| 20260503233411 | 78 | 230 | 5.0 | 20.0 | 0.00 | 0.00 | 0.00 | 23 | 1009.3 |
| 20260503232908 | 78 | 222 | 17.0 | 28.0 | 0.00 | 0.00 | 0.00 | 24 | 1009.5 |
| 20260503232405 | 78 | 231 | 14.0 | 26.0 | 0.00 | 0.00 | 0.00 | 23 | 1009.3 |
| 20260503231903 | 78 | 220 | 15.0 | 33.0 | 0.00 | 0.00 | 0.00 | 22 | 1009.7 |
| 20260503231400 | 79 | 216 | 20.0 | 25.0 | 0.00 | 0.00 | 0.00 | 23 | 1009.5 |
| 20260503230856 | 78 | 210 | 23.0 | 28.0 | 0.00 | 0.00 | 0.00 | 23 | 1009.5 |
| 20260503230352 | 79 | 227 | 15.0 | 31.0 | 0.00 | 0.00 | 0.00 | 23 | 1009.5 |
| 20260503225850 | 78 | 213 | 18.0 | 23.0 | 0.00 | 0.00 | 0.00 | 23 | 1010.0 |
| 20260503225346 | 79 | 225 | 16.0 | 31.0 | 0.00 | 0.00 | 0.00 | 22 | 1009.8 |
| 20260503224843 | 78 | 242 | 20.0 | 31.0 | 0.00 | 0.00 | 0.00 | 21 | 1010.0 |
| 20260503224340 | 79 | 225 | 18.0 | 26.0 | 0.00 | 0.00 | 0.00 | 20 | 1009.9 |
| 20260503223838 | 78 | 224 | 18.0 | 27.0 | 0.00 | 0.00 | 0.00 | 22 | 1010.1 |
| 20260503223335 | 78 | 215 | 20.0 | 27.0 | 0.00 | 0.00 | 0.00 | 23 | 1010.1 |
| 20260503222830 | 78 | 244 | 24.0 | 26.0 | 0.00 | 0.00 | 0.00 | 23 | 1010.2 |
| 20260503222329 | 78 | 233 | 13.0 | 32.0 | 0.00 | 0.00 | 0.00 | 21 | 1010.2 |
| 20260503221827 | 78 | 247 | 15.0 | 28.0 | 0.00 | 0.00 | 0.00 | 24 | 1010.2 |
| 20260503221326 | 78 | 223 | 13.0 | 24.0 | 0.00 | 0.00 | 0.00 | 23 | 1010.3 |
| 20260503220821 | 78 | 221 | 26.0 | 30.0 | 0.00 | 0.00 | 0.00 | 22 | 1010.7 |
| 20260503220318 | 78 | 218 | 17.0 | 33.0 | 0.00 | 0.00 | 0.00 | 22 | 1010.6 |
| 20260503215815 | 78 | 217 | 21.0 | 25.0 | 0.00 | 0.00 | 0.00 | 22 | 1010.7 |
| 20260503215312 | 79 | 223 | 26.0 | 28.0 | 0.00 | 0.00 | 0.00 | 22 | 1010.8 |
| 20260503214810 | 77 | 221 | 24.0 | 35.0 | 0.00 | 0.00 | 0.00 | 22 | 1011.0 |
| 20260503214307 | 78 | 223 | 14.0 | 28.0 | 0.00 | 0.00 | 0.00 | 22 | 1010.9 |
| 20260503213804 | 78 | 220 | 9.0 | 23.0 | 0.00 | 0.00 | 0.00 | 21 | 1011.0 |
| 20260503213302 | 75 | 231 | 17.0 | 26.0 | 0.00 | 0.00 | 0.00 | 22 | 1011.2 |
| 20260503212758 | 78 | 236 | 20.0 | 28.0 | 0.00 | 0.00 | 0.00 | 22 | 1011.2 |
| 20260503212256 | 78 | 232 | 15.0 | 30.0 | 0.00 | 0.00 | 0.00 | 22 | 1011.2 |
| 20260503211753 | 78 | 221 | 12.0 | 25.0 | 0.00 | 0.00 | 0.00 | 22 | 1011.6 |
| 20260503211250 | 78 | 203 | 9.0 | 39.0 | 0.00 | 0.00 | 0.00 | 21 | 1011.6 |
| 20260503210745 | 78 | 220 | 18.0 | 25.0 | 0.00 | 0.00 | 0.00 | 22 | 1011.5 |
| 20260503210242 | 79 | 219 | 30.0 | 30.0 | 0.00 | 0.00 | 0.00 | 21 | 1011.8 |
| 20260503205737 | 78 | 229 | 29.0 | 29.0 | 0.00 | 0.00 | 0.00 | 22 | 1011.7 |
| 20260503205234 | 78 | 224 | 20.0 | 26.0 | 0.00 | 0.00 | 0.00 | 23 | 1011.9 |
| 20260503204730 | 78 | 221 | 18.0 | 26.0 | 0.00 | 0.00 | 0.00 | 22 | 1012.0 |
| 20260503204228 | 77 | 189 | 6.0 | 30.0 | 0.00 | 0.00 | 0.00 | 23 | 1012.2 |
| 20260503203725 | 77 | 211 | 6.0 | 20.0 | 0.00 | 0.00 | 0.00 | 23 | 1012.2 |
| 20260503203222 | 77 | 220 | 18.0 | 33.0 | 0.00 | 0.00 | 0.00 | 21 | 1012.5 |
| 20260503202719 | 78 | 220 | 32.0 | 36.0 | 0.00 | 0.00 | 0.00 | 22 | 1012.6 |
| 20260503202217 | 79 | 226 | 17.0 | 32.0 | 0.00 | 0.00 | 0.00 | 23 | 1012.9 |
| 20260503201715 | 77 | 229 | 7.0 | 23.0 | 0.00 | 0.00 | 0.00 | 23 | 1013.0 |
| 20260503201212 | 78 | 236 | 13.0 | 26.0 | 0.00 | 0.00 | 0.00 | 23 | 1013.0 |
| 20260503200708 | 76 | 225 | 23.0 | 23.0 | 0.00 | 0.00 | 0.00 | 24 | 1013.0 |
| 20260503200205 | 76 | 226 | 17.0 | 28.0 | 0.00 | 0.00 | 0.00 | 24 | 1013.1 |
| 20260503195702 | 76 | 224 | 18.0 | 24.0 | 0.00 | 0.00 | 0.00 | 24 | 1013.2 |
| 20260503195159 | 76 | 228 | 22.0 | 33.0 | 0.00 | 0.00 | 0.00 | 24 | 1013.0 |
| 20260503194656 | 76 | 217 | 13.0 | 26.0 | 0.00 | 0.00 | 0.00 | 24 | 1013.3 |
| 20260503194151 | 77 | 195 | 19.0 | 23.0 | 0.00 | 0.00 | 0.00 | 25 | 1013.6 |
| 20260503193648 | 75 | 231 | 18.0 | 27.0 | 0.00 | 0.00 | 0.00 | 25 | 1013.6 |
| 20260503193144 | 74 | 225 | 16.0 | 36.0 | 0.00 | 0.00 | 0.00 | 23 | 1013.7 |
| 20260503192640 | 74 | 221 | 10.0 | 22.0 | 0.00 | 0.00 | 0.00 | 24 | 1013.5 |
| 20260503192135 | 76 | 246 | 18.0 | 27.0 | 0.00 | 0.00 | 0.00 | 24 | 1013.7 |
| 20260503191632 | 75 | 214 | 26.0 | 28.0 | 0.00 | 0.00 | 0.00 | 24 | 1013.7 |
| 20260503191129 | 75 | 235 | 20.0 | 29.0 | 0.00 | 0.00 | 0.00 | 23 | 1014.0 |
| 20260503190626 | 76 | 225 | 16.0 | 27.0 | 0.00 | 0.00 | 0.00 | 24 | 1013.7 |
| 20260503190123 | 74 | 225 | 14.0 | 23.0 | 0.00 | 0.00 | 0.00 | 25 | 1014.2 |
| 20260503185620 | 75 | 231 | 16.0 | 35.0 | 0.00 | 0.00 | 0.00 | 25 | 1014.1 |
| 20260503185115 | 74 | 219 | 15.0 | 33.0 | 0.00 | 0.00 | 0.00 | 26 | 1014.2 |
| 20260503184610 | 75 | 216 | 11.0 | 30.0 | 0.00 | 0.00 | 0.00 | 26 | 1014.7 |
| 20260503184107 | 74 | 226 | 14.0 | 30.0 | 0.00 | 0.00 | 0.00 | 25 | 1014.5 |
| 20260503183604 | 75 | 218 | 28.0 | 38.0 | 0.00 | 0.00 | 0.00 | 26 | 1014.6 |
| 20260503183101 | 74 | 234 | 27.0 | 34.0 | 0.00 | 0.00 | 0.00 | 25 | 1014.5 |
| 20260503182559 | 74 | 202 | 13.0 | 24.0 | 0.00 | 0.00 | 0.00 | 27 | 1014.7 |
| 20260503182057 | 73 | 228 | 22.0 | 25.0 | 0.00 | 0.00 | 0.00 | 27 | 1015.0 |
| 20260503181554 | 73 | 231 | 20.0 | 24.0 | 0.00 | 0.00 | 0.00 | 26 | 1014.8 |
| 20260503181050 | 74 | 233 | 33.0 | 33.0 | 0.00 | 0.00 | 0.00 | 28 | 1015.1 |
| 20260503180547 | 73 | 243 | 19.0 | 30.0 | 0.00 | 0.00 | 0.00 | 27 | 1015.4 |
| 20260503180045 | 73 | 215 | 11.0 | 24.0 | 0.00 | 0.00 | 0.00 | 27 | 1015.2 |
| 20260503175541 | 73 | 225 | 18.0 | 33.0 | 0.00 | 0.00 | 0.00 | 27 | 1015.2 |
| 20260503175039 | 72 | 223 | 19.0 | 25.0 | 0.00 | 0.00 | 0.00 | 29 | 1015.7 |
| 20260503174536 | 72 | 221 | 22.0 | 34.0 | 0.00 | 0.00 | 0.00 | 29 | 1015.6 |
| 20260503174031 | 72 | 237 | 23.0 | 27.0 | 0.00 | 0.00 | 0.00 | 29 | 1015.8 |
| 20260503173522 | 72 | 214 | 12.0 | 33.0 | 0.00 | 0.00 | 0.00 | 29 | 1015.6 |
| 20260503173018 | 71 | 226 | 17.0 | 28.0 | 0.00 | 0.00 | 0.00 | 30 | 1015.5 |
| 20260503172516 | 71 | 239 | 16.0 | 29.0 | 0.00 | 0.00 | 0.00 | 30 | 1015.9 |
| 20260503172013 | 71 | 228 | 12.0 | 28.0 | 0.00 | 0.00 | 0.00 | 31 | 1016.1 |
| 20260503171509 | 72 | 228 | 11.0 | 22.0 | 0.00 | 0.00 | 0.00 | 31 | 1016.0 |
| 20260503171007 | 71 | 220 | 21.0 | 34.0 | 0.00 | 0.00 | 0.00 | 30 | 1016.0 |
| 20260503170503 | 71 | 233 | 17.0 | 27.0 | 0.00 | 0.00 | 0.00 | 33 | 1016.2 |
| 20260503150855 | 64 | 242 | 19.0 | 36.0 | 0.00 | 0.00 | 0.00 | 46 | 1017.6 |
| 20260503150351 | 65 | 233 | 11.0 | 24.0 | 0.00 | 0.00 | 0.00 | 45 | 1017.7 |